Wind_Speed
2 2 2 1 2 3 5 10 15 9 4 11 13 13 9 11 14 16 17 18 18 19 19 24 27 30 29 30 31 31 30 29 29 29 26 23 18 15 16 20 22 19 25 33
1 4 1 2 6 10 13 17 8 6 8 9 13 11 9 8 8 13 11 12 12 12 18 25 26 26 27 27 27 27 28 27 28 29 28 24 21 18 16 19 19 18 19 23
3 3 1 3 5 7 9 6 9 5 8 10 8 8 5 6 8 6 3 9 9 9 12 14 20 23 23 26 26 27 28 28 28 28 27 27 24 22 22 25 23 23 19 16
2 2 3 3 1 3 6 4 11 14 8 4 2 4 3 5 8 6 5 8 6 5 9 10 13 18 19 22 21 22 23 24 23 22 21 24 27 27 31 29 27 25 25 23
2 3 5 3 3 1 2 5 11 11 7 4 3 3 5 1 7 5 4 6 7 8 11 14 15 18 21 23 23 24 26 27 27 26 25 25 25 28 33 31 28 26 24 23
2 2 1 0 3 5 10 9 11 3 2 3 3 3 4 1 1 2 2 3 7 9 11 13 13 17 20 20 22 25 26 27 25 25 26 27 27 28 27 30 32 29 26 26
2 3 3 1 4 7 4 3 2 3 3 2 1 4 3 1 3 6 6 5 7 9 10 12 17 19 19 23 25 24 23 24 22 24 26 30 29 27 27 28 30 35 34 28
2 5 6 7 2 2 5 2 1 1 2 2 1 2 3 4 6 3 2 4 5 9 11 13 15 18 20 22 26 25 24 24 25 27 31 30 29 28 28 29 30 30 32 29
3 3 0 7 3 2 4 2 2 4 1 3 0 1 2 5 6 6 5 6 9 11 11 15 18 21 21 21 22 21 22 26 27 32 35 36 34 35 34 32 27 27 31 29
2 4 3 2 2 14 3 5 0 1 2 3 3 3 3 8 6 4 6 8 9 9 11 14 17 18 17 19 18 17 16 20 24 29 33 35 36 37 34 28 25 26 27 27
2 1 2 2 6 4 3 2 5 2 2 3 4 1 5 7 5 5 7 7 8 10 13 15 17 18 19 21 20 17 17 21 24 27 28 30 32 31 27 24 24 24 24 17
2 2 3 4 2 1 7 4 2 3 1 1 2 2 4 4 6 7 7 8 10 12 13 14 16 19 24 25 15 14 20 22 26 26 26 27 25 26 25 26 27 23 19 18
2 3 4 5 4 3 5 5 2 2 1 2 4 3 3 3 3 4 6 9 11 11 12 16 19 22 25 15 14 19 26 32 29 27 26 24 20 22 24 26 26 25 24 22
5 3 3 3 4 2 5 9 4 2 2 2 3 2 3 1 2 3 6 9 9 12 16 18 20 21 15 15 20 24 26 30 28 28 22 22 20 19 20 21 22 22 23 21
3 4 6 10 11 13 11 12 13 8 3 4 4 1 1 2 5 6 8 11 13 16 16 16 16 14 16 20 24 25 26 28 24 22 20 16 17 15 18 21 22 23 21 19
3 5 6 6 8 13 16 10 7 7 5 6 2 1 2 5 8 12 14 11 15 14 12 10 13 16 20 21 22 21 24 20 20 20 20 17 13 15 17 20 23 26 24 21
2 6 3 4 3 1 4 7 7 2 2 3 5 5 6 8 12 15 13 13 15 10 8 11 16 20 18 20 19 21 18 16 21 24 21 18 15 17 18 21 25 25 24 23
5 4 2 3 5 2 4 3 2 3 2 3 3 6 9 11 13 10 12 15 12 10 12 14 16 19 17 19 20 21 12 15 21 25 24 20 15 15 19 21 25 23 23 24
4 4 4 2 3 3 2 1 2 4 3 5 5 8 11 14 13 6 17 13 12 13 14 13 15 18 16 19 21 13 10 14 19 22 22 20 16 13 16 23 22 23 23 23
7 7 2 2 2 2 3 1 7 3 2 6 7 9 12 15 11 13 17 18 18 18 17 14 15 17 19 18 19 9 10 15 19 21 22 21 14 15 19 21 22 23 24 24
3 3 5 3 3 3 2 8 5 3 4 4 6 8 11 11 9 16 18 18 18 16 13 13 17 18 16 16 17 8 13 16 17 21 24 22 16 16 18 19 22 24 25 27
2 1 2 2 2 3 7 3 2 3 3 4 6 9 11 13 15 16 17 17 18 17 13 14 15 13 17 16 12 12 13 13 16 21 25 23 20 19 19 23 25 22 23 24
1 2 2 3 3 3 5 9 7 5 5 5 6 10 12 13 14 15 15 17 18 16 14 10 12 11 12 13 13 13 12 11 15 19 25 23 20 19 20 21 24 24 26 27
2 1 3 4 3 6 6 6 7 7 7 5 9 10 10 11 14 14 14 14 14 15 13 12 11 12 11 12 12 12 12 14 14 17 23 22 17 16 19 17 22 25 26 25
2 6 6 3 4 6 4 6 6 5 5 7 10 9 9 10 15 14 14 13 14 14 13 12 12 11 10 12 11 11 13 14 14 15 19 22 15 17 14 17 22 22 24 25
5 5 2 2 12 5 8 9 6 3 6 9 8 7 9 12 12 12 13 13 14 14 14 15 15 11 12 11 10 12 13 14 12 12 15 17 16 18 16 11 14 21 21 21
Wind_Direction
6 176 118 314 104 84 107 118 114 118 138 69 94 99 83 82 80 71 60 58 56 54 72 79 78 78 69 62 57 52 45 39 36 36 33 28 17 0 337 332 331 319 275 276
168 89 281 114 132 106 126 123 112 99 95 106 121 102 86 83 88 87 88 87 83 76 80 86 84 77 70 61 55 46 40 33 29 24 17 15 8 356 333 320 321 325 312 298
130 79 176 147 141 133 161 169 174 150 118 94 128 117 123 73 104 117 170 88 79 79 80 78 77 73 64 56 47 38 32 25 21 16 5 359 358 353 346 338 322 320 314 309
65 347 105 76 124 174 171 127 161 145 170 157 282 159 128 111 126 97 100 123 103 107 88 77 69 61 58 56 51 43 35 27 24 22 19 10 360 348 344 340 334 321 316 310
58 58 39 57 7 160 86 74 149 136 101 152 61 271 111 189 154 101 142 131 115 89 69 59 53 49 40 32 26 19 17 18 16 10 2 357 352 342 335 333 333 334 324 315
35 338 60 133 82 79 137 92 93 108 138 169 33 295 138 176 338 281 317 101 83 67 50 46 41 37 31 22 17 15 12 11 6 3 358 352 343 337 332 326 323 326 325 322
39 49 351 9 138 119 179 160 166 171 206 47 345 227 29 287 313 287 323 27 35 31 29 28 26 22 15 14 15 18 13 7 2 358 353 348 344 340 333 327 318 315 317 317
112 153 5 353 41 88 47 2 33 267 269 95 154 234 76 342 336 282 95 79 44 32 27 22 18 11 6 9 4 4 0 358 356 353 349 348 345 340 334 326 316 311 307 308
133 90 251 39 60 326 137 78 54 103 45 232 32 195 207 27 30 64 66 50 31 25 20 10 5 3 357 351 352 348 348 346 346 346 348 346 344 341 335 327 313 303 300 301
116 127 20 55 182 55 43 123 224 67 283 297 186 256 272 345 356 34 39 48 49 34 15 4 2 358 344 339 330 333 337 345 344 347 346 342 340 338 336 340 335 324 317 302
96 335 92 269 32 23 99 93 67 85 331 302 302 138 352 325 2 66 72 53 23 9 4 3 356 349 350 347 339 333 337 343 346 344 341 341 344 345 348 346 343 340 337 339
41 82 80 95 59 9 61 51 37 299 211 74 318 94 6 61 62 56 42 14 2 357 351 349 355 354 353 342 340 351 353 348 346 347 348 354 3 15 19 18 14 7 11 14
149 39 130 148 154 86 48 22 58 104 284 112 302 74 109 91 72 27 5 0 353 355 359 355 353 352 345 352 6 359 358 350 346 348 360 5 19 31 30 30 30 27 25 29
96 69 31 162 70 56 59 16 9 355 360 109 34 128 166 210 294 340 356 354 358 360 359 353 351 350 8 10 6 358 348 334 343 354 4 4 12 27 33 32 29 30 26 23
67 84 90 80 88 87 80 55 49 67 30 18 97 77 202 261 294 313 334 351 357 355 353 354 0 11 5 359 351 342 343 344 354 9 16 12 9 27 37 37 28 22 17 14
21 125 122 66 102 95 75 53 54 53 55 88 82 45 9 310 311 326 339 349 351 346 349 5 8 3 356 347 340 341 342 354 26 25 25 23 6 18 28 29 23 18 14 19
70 145 151 131 188 299 68 26 43 48 40 2 4 18 349 345 341 338 343 350 341 337 344 355 356 350 345 344 348 349 359 34 39 34 24 22 17 20 28 23 21 17 27 33
117 99 50 100 141 199 76 40 35 10 76 43 22 0 346 341 337 349 10 348 346 351 351 343 342 345 343 346 351 354 27 44 41 34 26 22 30 22 22 25 21 31 36 38
68 125 101 142 80 110 193 207 333 328 64 30 354 348 344 342 331 345 1 5 351 341 337 332 342 350 352 349 353 2 43 40 35 29 19 19 26 25 33 31 34 41 42 39
68 72 98 130 130 101 103 126 326 205 150 20 2 353 353 343 336 348 343 340 334 333 334 331 346 352 347 349 358 14 44 39 32 25 25 26 35 37 38 36 45 47 44 42
46 37 71 99 102 111 21 318 310 295 29 29 16 17 9 359 331 327 339 346 346 344 351 351 350 357 356 356 349 52 48 40 30 30 30 30 47 53 46 48 46 50 51 53
43 79 75 120 109 122 0 310 341 86 86 45 35 19 0 343 341 350 350 355 358 0 354 352 360 16 19 37 52 70 55 40 35 34 31 44 60 69 63 58 56 58 55 49
124 16 86 4 74 100 55 90 104 101 86 46 25 7 353 356 358 356 3 9 9 10 3 0 11 21 32 44 66 63 52 34 30 37 39 48 64 67 64 60 55 50 51 49
105 135 86 173 145 132 117 107 109 92 76 47 12 7 16 12 10 14 14 15 21 21 18 17 24 30 59 72 79 57 40 27 26 45 43 45 55 55 62 53 48 49 47 47
73 157 131 98 146 143 139 139 126 96 52 24 15 27 33 36 36 25 25 30 34 32 25 27 27 39 77 83 71 51 35 25 28 45 45 43 53 48 49 56 48 48 45 50
187 151 173 101 159 119 148 156 146 95 31 11 28 40 46 60 39 32 38 38 45 42 44 39 73 69 84 77 54 39 32 24 32 49 45 44 54 49 55 55 43 52 50 53
Height
1509 1507 1508 1507 1509 1510 1513 1515 1523 1528 1528 1530 1537 1539 1544 1546 1544 1543 1543 1545 1546 1547 1543 1536 1534 1532 1531 1529 1526 1525 1525 1524 1522 1520 1517 1514 1511 1507 1504 1500 1494 1488 1484 1481
1510 1509 1507 1508 1511 1512 1514 1517 1526 1528 1529 1529 1537 1544 1545 1546 1548 1548 1548 1550 1550 1551 1547 1541 1537 1537 1533 1532 1531 1529 1526 1526 1523 1520 1516 1513 1510 1507 1503 1498 1492 1486 1481 1476
1506 1507 1506 1506 1510 1511 1516 1515 1523 1520 1530 1533 1534 1543 1546 1547 1548 1550 1549 1552 1553 1553 1550 1546 1540 1538 1535 1532 1532 1529 1527 1524 1522 1519 1516 1512 1507 1503 1498 1492 1486 1481 1478 1475
1506 1506 1506 1507 1509 1509 1514 1511 1514 1521 1524 1532 1536 1538 1544 1546 1547 1550 1551 1552 1553 1554 1550 1547 1542 1539 1538 1535 1534 1532 1528 1524 1520 1518 1515 1511 1506 1500 1494 1488 1481 1476 1474 1470
1510 1506 1506 1510 1511 1508 1515 1514 1515 1522 1525 1529 1535 1535 1541 1541 1542 1546 1549 1552 1552 1551 1549 1545 1543 1540 1537 1535 1534 1530 1527 1524 1520 1517 1513 1510 1505 1501 1492 1486 1480 1475 1470 1467
1507 1507 1507 1508 1510 1510 1513 1517 1524 1527 1528 1538 1543 1541 1538 1539 1542 1542 1545 1547 1549 1547 1545 1543 1542 1539 1537 1537 1534 1531 1527 1524 1521 1517 1513 1509 1504 1498 1492 1484 1477 1472 1467 1462
1509 1509 1508 1508 1508 1511 1513 1517 1531 1538 1537 1541 1544 1540 1539 1540 1540 1540 1542 1543 1544 1544 1543 1542 1539 1538 1538 1535 1533 1530 1527 1524 1520 1516 1512 1507 1501 1496 1489 1483 1475 1468 1461 1458
1516 1525 1512 1510 1510 1512 1517 1519 1527 1549 1544 1538 1541 1544 1540 1540 1541 1541 1543 1545 1545 1545 1544 1544 1542 1540 1539 1535 1533 1530 1527 1523 1519 1515 1510 1505 1499 1492 1485 1479 1472 1465 1459 1454
1518 1522 1513 1513 1511 1513 1519 1522 1528 1539 1548 1540 1546 1543 1540 1540 1542 1543 1544 1545 1545 1545 1544 1543 1542 1541 1538 1537 1535 1531 1527 1524 1519 1513 1507 1500 1493 1486 1478 1471 1465 1459 1453 1447
1517 1524 1516 1513 1514 1516 1516 1525 1528 1528 1547 1548 1547 1548 1540 1544 1544 1545 1546 1547 1548 1548 1547 1546 1543 1541 1540 1538 1535 1531 1527 1523 1518 1513 1506 1499 1491 1483 1474 1466 1460 1453 1447 1442
1515 1517 1521 1515 1522 1525 1521 1524 1534 1536 1541 1541 1545 1543 1551 1550 1550 1550 1551 1550 1550 1549 1548 1546 1544 1543 1540 1536 1532 1528 1525 1521 1517 1511 1504 1497 1490 1481 1473 1466 1459 1452 1445 1440
1523 1523 1527 1528 1527 1527 1526 1532 1533 1533 1544 1548 1543 1547 1557 1556 1555 1554 1553 1552 1552 1551 1549 1547 1545 1542 1538 1534 1530 1528 1524 1519 1514 1507 1501 1494 1488 1480 1473 1466 1459 1453 1447 1441
1522 1535 1534 1532 1530 1528 1533 1537 1540 1542 1541 1545 1543 1549 1559 1559 1558 1557 1556 1555 1554 1552 1550 1548 1545 1541 1536 1532 1530 1527 1522 1516 1511 1505 1499 1493 1487 1480 1474 1469 1462 1457 1451 1446
1522 1537 1536 1534 1539 1538 1541 1542 1540 1538 1536 1546 1549 1555 1559 1559 1558 1557 1557 1556 1555 1553 1551 1548 1544 1540 1536 1533 1530 1525 1520 1514 1509 1503 1498 1493 1487 1482 1476 1471 1466 1460 1456 1451
1525 1538 1539 1541 1541 1542 1548 1547 1544 1546 1552 1547 1555 1556 1557 1558 1558 1558 1557 1556 1554 1552 1550 1546 1543 1540 1537 1533 1529 1524 1520 1514 1509 1503 1498 1493 1489 1484 1479 1475 1469 1464 1459 1454
1531 1542 1540 1547 1545 1544 1549 1551 1550 1553 1554 1556 1556 1556 1559 1560 1559 1558 1557 1556 1554 1551 1549 1546 1543 1540 1536 1532 1529 1524 1520 1514 1509 1504 1500 1495 1490 1486 1482 1477 1473 1467 1462 1457
1533 1537 1540 1551 1549 1548 1551 1557 1556 1557 1557 1556 1555 1559 1560 1559 1559 1558 1557 1555 1552 1550 1548 1545 1543 1540 1536 1532 1528 1523 1519 1514 1510 1506 1502 1497 1493 1489 1484 1480 1475 1470 1465 1460
1534 1539 1543 1547 1548 1558 1559 1559 1557 1557 1559 1559 1560 1561 1561 1561 1560 1558 1557 1554 1552 1550 1548 1546 1542 1539 1535 1531 1527 1522 1519 1515 1512 1509 1504 1500 1495 1491 1487 1483 1479 1474 1470 1465
1532 1537 1546 1546 1554 1560 1560 1558 1559 1558 1561 1563 1562 1562 1562 1561 1559 1555 1556 1555 1553 1551 1547 1544 1541 1538 1534 1531 1526 1522 1519 1517 1514 1511 1506 1501 1497 1494 1491 1487 1483 1479 1475 1472
1535 1535 1535 1549 1552 1558 1557 1558 1559 1557 1558 1565 1564 1563 1562 1560 1554 1554 1557 1554 1551 1548 1544 1541 1540 1537 1534 1530 1526 1522 1521 1520 1516 1513 1508 1503 1500 1497 1494 1491 1487 1484 1481 1477
1539 1542 1546 1551 1552 1557 1558 1559 1558 1556 1566 1566 1566 1565 1564 1562 1563 1560 1557 1553 1549 1546 1543 1540 1538 1536 1533 1529 1526 1524 1524 1522 1519 1516 1511 1506 1502 1500 1499 1496 1493 1489 1486 1483
1541 1542 1547 1552 1552 1559 1560 1559 1556 1565 1566 1566 1566 1565 1564 1563 1561 1558 1555 1551 1547 1543 1541 1540 1538 1535 1533 1529 1528 1527 1527 1525 1522 1519 1515 1510 1507 1505 1504 1502 1499 1495 1491 1488
1543 1546 1544 1553 1555 1562 1562 1563 1564 1565 1566 1566 1566 1564 1563 1561 1559 1556 1553 1550 1547 1544 1541 1540 1540 1537 1534 1532 1532 1532 1530 1527 1525 1522 1518 1514 1513 1511 1509 1507 1504 1500 1497 1493
1546 1549 1549 1555 1562 1561 1563 1564 1565 1565 1565 1566 1564 1563 1562 1561 1559 1556 1553 1550 1547 1544 1543 1542 1540 1538 1536 1535 1535 1534 1532 1530 1528 1525 1522 1520 1517 1516 1513 1512 1509 1506 1502 1499
1544 1548 1552 1558 1561 1562 1563 1564 1565 1565 1565 1565 1563 1562 1562 1561 1559 1556 1553 1550 1549 1547 1546 1543 1540 1539 1538 1538 1538 1536 1535 1532 1530 1528 1526 1524 1522 1520 1519 1516 1514 1511 1508 1505
1544 1545 1544 1545 1552 1555 1560 1563 1564 1565 1565 1564 1563 1563 1561 1560 1559 1557 1554 1552 1551 1550 1548 1546 1543 1542 1541 1541 1540 1538 1537 1534 1532 1531 1529 1528 1526 1524 1522 1522 1520 1517 1514 1512